Time,TemperatureF,DewpointF,PressureIn,WindDirection,WindDirectionDegrees,WindSpeedMPH,WindSpeedGustMPH,Humidity,HourlyPrecipIn,Conditions,Clouds,dailyrainin,SoftwareType,DateUTC
2013-03-02 00:01:00,8.2,2.8,30.11,NW,319,0.0,0.0,78,0.00,CLR,SKC,0.00,WeatherDisplay:10.37,2013-03-02 06:01:00,
2013-03-02 00:06:00,8.4,2.9,30.11,NW,319,0.0,0.0,78,0.00,CLR,SKC,0.00,WeatherDisplay:10.37,2013-03-02 06:06:00,
2013-03-02 00:11:00,8.7,3.5,30.12,NW,319,0.0,0.0,79,0.00,CLR,SKC,0.00,WeatherDisplay:10.37,2013-03-02 06:11:00,
2013-03-02 00:16:00,9.0,3.5,30.12,NW,319,0.1,1.1,78,0.00,CLR,SKC,0.00,WeatherDisplay:10.37,2013-03-02 06:16:00,
2013-03-02 00:21:00,9.1,3.6,30.12,NW,319,0.6,2.3,78,0.00,CLR,SKC,0.00,WeatherDisplay:10.37,2013-03-02 06:21:00,
2013-03-02 00:26:00,8.7,3.2,30.12,NW,319,1.3,2.3,78,0.00,CLR,SKC,0.00,WeatherDisplay:10.37,2013-03-02 06:26:00,
2013-03-02 00:31:00,8.7,3.2,30.12,NW,319,0.0,0.0,78,0.00,CLR,SKC,0.00,WeatherDisplay:10.37,2013-03-02 06:31:00,
2013-03-02 00:36:00,8.8,3.3,30.12,NW,319,0.1,1.1,78,0.00,CLR,SKC,0.00,WeatherDisplay:10.37,2013-03-02 06:36:00,
2013-03-02 00:41:00,8.7,3.2,30.12,NW,319,1.0,2.3,78,0.00,CLR,SKC,0.00,WeatherDisplay:10.37,2013-03-02 06:41:00,
2013-03-02 00:46:00,8.5,3.0,30.12,NW,319,0.7,1.1,78,0.00,CLR,SKC,0.00,WeatherDisplay:10.37,2013-03-02 06:46:00,
2013-03-02 00:51:00,8.2,2.8,30.12,NW,319,1.4,2.3,78,0.00,CLR,SKC,0.00,WeatherDisplay:10.37,2013-03-02 06:51:00,
2013-03-02 00:56:00,7.8,2.4,30.12,NW,319,0.0,0.0,78,0.00,CLR,SKC,0.00,WeatherDisplay:10.37,2013-03-02 06:56:00,
2013-03-02 01:01:00,7.6,2.2,30.11,NW,319,0.0,0.0,78,0.00,CLR,SKC,0.00,WeatherDisplay:10.37,2013-03-02 07:01:00,
2013-03-02 01:06:00,8.0,2.6,30.11,NW,319,0.0,0.0,78,0.00,CLR,SKC,0.00,WeatherDisplay:10.37,2013-03-02 07:06:00,
2013-03-02 01:11:00,8.5,3.3,30.11,NW,319,0.0,0.0,79,0.00,CLR,SKC,0.00,WeatherDisplay:10.37,2013-03-02 07:11:00,
2013-03-02 01:16:00,8.7,3.5,30.11,NW,319,0.0,1.1,79,0.00,CLR,SKC,0.00,WeatherDisplay:10.37,2013-03-02 07:16:00,
2013-03-02 01:21:00,8.6,3.1,30.11,NW,319,0.0,1.1,78,0.00,CLR,SKC,0.00,WeatherDisplay:10.37,2013-03-02 07:21:00,
2013-03-02 01:26:00,8.3,2.9,30.11,NW,319,0.0,0.0,78,0.00,CLR,SKC,0.00,WeatherDisplay:10.37,2013-03-02 07:26:00,
2013-03-02 01:31:00,8.1,2.7,30.11,NW,319,0.0,0.0,78,0.00,CLR,SKC,0.00,WeatherDisplay:10.37,2013-03-02 07:31:00,
2013-03-02 01:36:00,8.2,2.8,30.11,NW,319,0.0,0.0,78,0.00,CLR,SKC,0.00,WeatherDisplay:10.37,2013-03-02 07:36:00,
2013-03-02 01:41:00,8.9,3.7,30.11,NW,319,0.0,0.0,79,0.00,CLR,SKC,0.00,WeatherDisplay:10.37,2013-03-02 07:41:00,
2013-03-02 01:46:00,9.6,4.4,30.11,NW,319,1.1,2.3,79,0.00,CLR,SKC,0.00,WeatherDisplay:10.37,2013-03-02 07:46:00,
2013-03-02 01:51:00,9.8,4.6,30.11,NW,319,1.3,2.3,79,0.00,CLR,SKC,0.00,WeatherDisplay:10.37,2013-03-02 07:51:00,
2013-03-02 01:56:00,9.9,4.4,30.11,NW,319,1.7,2.3,78,0.00,CLR,SKC,0.00,WeatherDisplay:10.37,2013-03-02 07:56:00,
2013-03-02 02:01:00,9.7,4.2,30.11,NW,319,0.1,1.1,78,0.00,CLR,SKC,0.00,WeatherDisplay:10.37,2013-03-02 08:01:00,
2013-03-02 02:07:00,9.2,3.7,30.11,NW,319,0.0,0.0,78,0.00,CLR,SKC,0.00,WeatherDisplay:10.37,2013-03-02 08:07:00,
2013-03-02 02:12:00,8.7,3.2,30.11,NW,319,0.0,0.0,78,0.00,CLR,SKC,0.00,WeatherDisplay:10.37,2013-03-02 08:12:00,
2013-03-02 02:17:00,8.4,2.9,30.11,NW,319,0.0,0.0,78,0.00,CLR,SKC,0.00,WeatherDisplay:10.37,2013-03-02 08:17:00,
2013-03-02 02:22:00,7.8,2.4,30.11,NW,319,0.0,0.0,78,0.00,CLR,SKC,0.00,WeatherDisplay:10.37,2013-03-02 08:22:00,
2013-03-02 02:27:00,7.2,1.8,30.11,NW,319,0.7,1.1,78,0.00,CLR,SKC,0.00,WeatherDisplay:10.37,2013-03-02 08:27:00,
2013-03-02 02:32:00,6.5,1.1,30.11,NW,319,0.0,0.0,78,0.00,CLR,SKC,0.00,WeatherDisplay:10.37,2013-03-02 08:32:00,
2013-03-02 02:37:00,6.1,0.7,30.11,NW,319,0.0,0.0,78,0.00,CLR,SKC,0.00,WeatherDisplay:10.37,2013-03-02 08:37:00,
2013-03-02 02:42:00,6.1,0.7,30.11,NW,319,0.0,0.0,78,0.00,CLR,SKC,0.00,WeatherDisplay:10.37,2013-03-02 08:42:00,
2013-03-02 02:47:00,6.2,0.8,30.11,NW,319,0.0,0.0,78,0.00,CLR,SKC,0.00,WeatherDisplay:10.37,2013-03-02 08:47:00,
2013-03-02 02:52:00,6.1,0.7,30.11,NW,319,0.0,0.0,78,0.00,CLR,SKC,0.00,WeatherDisplay:10.37,2013-03-02 08:52:00,
2013-03-02 02:57:00,6.2,0.8,30.11,NW,319,0.0,0.0,78,0.00,CLR,SKC,0.00,WeatherDisplay:10.37,2013-03-02 08:57:00,
2013-03-02 03:02:00,6.3,0.9,30.11,NW,319,0.0,1.1,78,0.00,CLR,SKC,0.00,WeatherDisplay:10.37,2013-03-02 09:02:00,
2013-03-02 03:07:00,6.6,1.2,30.11,NW,319,0.4,1.1,78,0.00,CLR,SKC,0.00,WeatherDisplay:10.37,2013-03-02 09:07:00,
2013-03-02 03:12:00,6.8,1.4,30.11,NW,319,0.0,0.0,78,0.00,CLR,SKC,0.00,WeatherDisplay:10.37,2013-03-02 09:12:00,
2013-03-02 03:17:00,7.0,1.6,30.11,NW,319,0.4,1.1,78,0.00,CLR,SKC,0.00,WeatherDisplay:10.37,2013-03-02 09:17:00,
2013-03-02 03:22:00,7.1,1.7,30.11,NW,319,0.0,0.0,78,0.00,CLR,SKC,0.00,WeatherDisplay:10.37,2013-03-02 09:22:00,
2013-03-02 03:27:00,7.3,1.9,30.11,NW,319,0.0,0.0,78,0.00,CLR,SKC,0.00,WeatherDisplay:10.37,2013-03-02 09:27:00,
2013-03-02 03:32:00,7.6,2.2,30.11,NW,319,0.0,0.0,78,0.00,CLR,SKC,0.00,WeatherDisplay:10.37,2013-03-02 09:32:00,
2013-03-02 03:37:00,7.6,2.2,30.11,NW,319,0.0,1.1,78,0.00,CLR,SKC,0.00,WeatherDisplay:10.37,2013-03-02 09:37:00,
2013-03-02 03:42:00,7.2,1.8,30.11,NW,319,0.0,0.0,78,0.00,CLR,SKC,0.00,WeatherDisplay:10.37,2013-03-02 09:42:00,
2013-03-02 03:47:00,6.8,1.4,30.11,NW,319,0.0,0.0,78,0.00,CLR,SKC,0.00,WeatherDisplay:10.37,2013-03-02 09:47:00,
2013-03-02 03:52:00,6.4,1.0,30.11,NW,319,0.0,0.0,78,0.00,CLR,SKC,0.00,WeatherDisplay:10.37,2013-03-02 09:52:00,
2013-03-02 03:57:00,6.0,0.6,30.11,NW,319,0.0,0.0,78,0.00,CLR,SKC,0.00,WeatherDisplay:10.37,2013-03-02 09:57:00,
2013-03-02 04:02:00,5.6,0.2,30.11,NW,319,0.0,0.0,78,0.00,CLR,SKC,0.00,WeatherDisplay:10.37,2013-03-02 10:02:00,
2013-03-02 04:07:00,5.4,0.0,30.11,NW,319,0.0,0.0,78,0.00,CLR,SKC,0.00,WeatherDisplay:10.37,2013-03-02 10:07:00,
2013-03-02 04:12:00,5.6,0.2,30.11,NW,319,0.0,0.0,78,0.00,CLR,SKC,0.00,WeatherDisplay:10.37,2013-03-02 10:12:00,
2013-03-02 04:18:00,5.9,0.5,30.11,NW,319,0.0,0.0,78,0.00,CLR,SKC,0.00,WeatherDisplay:10.37,2013-03-02 10:18:00,
2013-03-02 04:23:00,6.0,0.6,30.11,NW,319,0.0,0.0,78,0.00,CLR,SKC,0.00,WeatherDisplay:10.37,2013-03-02 10:23:00,
2013-03-02 04:28:00,6.1,0.7,30.11,NW,319,0.0,0.0,78,0.00,CLR,SKC,0.00,WeatherDisplay:10.37,2013-03-02 10:28:00,
2013-03-02 04:33:00,6.1,0.7,30.11,NW,319,0.0,0.0,78,0.00,CLR,SKC,0.00,WeatherDisplay:10.37,2013-03-02 10:33:00,
2013-03-02 04:38:00,6.2,0.8,30.12,NW,319,0.0,0.0,78,0.00,CLR,SKC,0.00,WeatherDisplay:10.37,2013-03-02 10:38:00,
2013-03-02 04:43:00,6.3,0.9,30.12,NW,319,0.0,0.0,78,0.00,CLR,SKC,0.00,WeatherDisplay:10.37,2013-03-02 10:43:00,
2013-03-02 04:48:00,6.0,0.6,30.12,NW,319,0.0,0.0,78,0.00,CLR,SKC,0.00,WeatherDisplay:10.37,2013-03-02 10:48:00,
2013-03-02 04:53:00,5.7,0.3,30.13,NW,319,0.0,0.0,78,0.00,CLR,SKC,0.00,WeatherDisplay:10.37,2013-03-02 10:53:00,
2013-03-02 04:59:00,5.1,-0.3,30.13,NW,319,0.0,0.0,78,0.00,CLR,SKC,0.00,WeatherDisplay:10.37,2013-03-02 10:59:00,
2013-03-02 05:04:00,4.5,-0.8,30.13,NW,319,0.0,0.0,78,0.00,CLR,SKC,0.00,WeatherDisplay:10.37,2013-03-02 11:04:00,
2013-03-02 05:09:00,4.2,-1.1,30.13,NW,319,0.0,0.0,78,0.00,CLR,SKC,0.00,WeatherDisplay:10.37,2013-03-02 11:09:00,
2013-03-02 05:15:00,4.0,-1.3,30.13,NW,319,0.0,0.0,78,0.00,CLR,SKC,0.00,WeatherDisplay:10.37,2013-03-02 11:15:00,
2013-03-02 05:20:00,4.2,-1.1,30.12,NW,319,0.0,0.0,78,0.00,CLR,SKC,0.00,WeatherDisplay:10.37,2013-03-02 11:20:00,
2013-03-02 05:25:00,4.4,-0.9,30.12,NW,319,0.0,0.0,78,0.00,CLR,SKC,0.00,WeatherDisplay:10.37,2013-03-02 11:25:00,
2013-03-02 05:30:00,4.4,-0.9,30.12,NW,319,0.0,0.0,78,0.00,CLR,SKC,0.00,WeatherDisplay:10.37,2013-03-02 11:30:00,
2013-03-02 05:35:00,4.4,-0.9,30.12,NW,319,0.0,0.0,78,0.00,CLR,SKC,0.00,WeatherDisplay:10.37,2013-03-02 11:35:00,
2013-03-02 05:40:00,4.6,-0.8,30.12,NW,319,0.0,0.0,78,0.00,CLR,SKC,0.00,WeatherDisplay:10.37,2013-03-02 11:40:00,
2013-03-02 05:45:00,4.7,-0.7,30.11,NW,319,0.0,0.0,78,0.00,CLR,SKC,0.00,WeatherDisplay:10.37,2013-03-02 11:45:00,
2013-03-02 05:50:00,5.0,-0.4,30.11,NW,319,0.0,0.0,78,0.00,CLR,SKC,0.00,WeatherDisplay:10.37,2013-03-02 11:50:00,
2013-03-02 05:55:00,5.2,-0.2,30.11,NW,319,0.0,0.0,78,0.00,CLR,SKC,0.00,WeatherDisplay:10.37,2013-03-02 11:55:00,
2013-03-02 06:00:00,5.3,-0.1,30.11,NW,319,0.0,0.0,78,0.00,CLR,SKC,0.00,WeatherDisplay:10.37,2013-03-02 12:00:00,
2013-03-02 06:05:00,5.3,-0.1,30.11,NW,319,0.0,0.0,78,0.00,CLR,SKC,0.00,WeatherDisplay:10.37,2013-03-02 12:05:00,
2013-03-02 06:10:00,5.2,-0.2,30.12,NW,319,0.0,0.0,78,0.00,CLR,SKC,0.00,WeatherDisplay:10.37,2013-03-02 12:10:00,
2013-03-02 06:15:00,5.0,-0.4,30.11,NW,319,0.0,0.0,78,0.00,CLR,SKC,0.00,WeatherDisplay:10.37,2013-03-02 12:15:00,
2013-03-02 06:20:00,4.9,-0.5,30.11,NW,319,0.0,0.0,78,0.00,CLR,SKC,0.00,WeatherDisplay:10.37,2013-03-02 12:20:00,
2013-03-02 06:25:00,4.6,-0.8,30.12,NW,319,0.0,0.0,78,0.00,CLR,SKC,0.00,WeatherDisplay:10.37,2013-03-02 12:25:00,
2013-03-02 06:30:00,4.4,-0.9,30.13,NW,319,0.0,0.0,78,0.00,CLR,SKC,0.00,WeatherDisplay:10.37,2013-03-02 12:30:00,
2013-03-02 06:35:00,4.4,-0.9,30.12,NW,319,0.0,0.0,78,0.00,CLR,SKC,0.00,WeatherDisplay:10.37,2013-03-02 12:35:00,
2013-03-02 06:40:00,4.7,-0.7,30.12,NW,319,0.0,0.0,78,0.00,CLR,SKC,0.00,WeatherDisplay:10.37,2013-03-02 12:40:00,
2013-03-02 06:45:00,4.9,-0.5,30.13,NW,319,0.0,0.0,78,0.00,CLR,SKC,0.00,WeatherDisplay:10.37,2013-03-02 12:45:00,
2013-03-02 06:50:00,4.8,-0.6,30.13,NW,319,0.0,0.0,78,0.00,CLR,SKC,0.00,WeatherDisplay:10.37,2013-03-02 12:50:00,
2013-03-02 06:55:00,4.6,-0.8,30.13,NW,319,0.0,0.0,78,0.00,CLR,SKC,0.00,WeatherDisplay:10.37,2013-03-02 12:55:00,
2013-03-02 07:00:00,4.7,-0.7,30.13,NW,319,0.0,0.0,78,0.00,CLR,SKC,0.00,WeatherDisplay:10.37,2013-03-02 13:00:00,
2013-03-02 07:05:00,4.8,-0.6,30.13,NW,319,0.0,0.0,78,0.00,CLR,SKC,0.00,WeatherDisplay:10.37,2013-03-02 13:05:00,
2013-03-02 07:10:00,4.7,-0.7,30.13,NW,319,0.0,0.0,78,0.00,CLR,SKC,0.00,WeatherDisplay:10.37,2013-03-02 13:10:00,
2013-03-02 07:15:00,4.5,-0.8,30.13,NW,319,0.0,0.0,78,0.00,CLR,SKC,0.00,WeatherDisplay:10.37,2013-03-02 13:15:00,
2013-03-02 07:20:00,4.5,-0.8,30.13,NW,319,0.0,0.0,78,0.00,CLR,SKC,0.00,WeatherDisplay:10.37,2013-03-02 13:20:00,
2013-03-02 07:25:00,4.5,-0.8,30.13,NW,319,0.0,0.0,78,0.00,CLR,SKC,0.00,WeatherDisplay:10.37,2013-03-02 13:25:00,
2013-03-02 07:30:00,4.6,-0.8,30.14,NW,319,0.0,0.0,78,0.00,CLR,SKC,0.00,WeatherDisplay:10.37,2013-03-02 13:30:00,
2013-03-02 07:35:00,4.7,-0.7,30.14,NW,319,0.0,0.0,78,0.00,CLR,SKC,0.00,WeatherDisplay:10.37,2013-03-02 13:35:00,
2013-03-02 07:40:00,4.9,-0.5,30.14,NW,319,0.0,0.0,78,0.00,CLR,SKC,0.00,WeatherDisplay:10.37,2013-03-02 13:40:00,
2013-03-02 07:45:00,5.0,-0.4,30.14,NW,319,0.0,0.0,78,0.00,CLR,SKC,0.00,WeatherDisplay:10.37,2013-03-02 13:45:00,
2013-03-02 07:50:00,5.0,-0.4,30.14,NW,319,0.0,0.0,78,0.00,CLR,SKC,0.00,WeatherDisplay:10.37,2013-03-02 13:50:00,
2013-03-02 07:55:00,5.1,-0.3,30.14,NW,319,0.0,0.0,78,0.00,CLR,SKC,0.00,WeatherDisplay:10.37,2013-03-02 13:55:00,
2013-03-02 08:00:00,5.5,0.1,30.14,NW,319,0.0,0.0,78,0.00,CLR,SKC,0.00,WeatherDisplay:10.37,2013-03-02 14:00:00,
2013-03-02 08:05:00,6.2,0.8,30.14,NW,319,0.0,0.0,78,0.00,CLR,SKC,0.00,WeatherDisplay:10.37,2013-03-02 14:05:00,
2013-03-02 08:10:00,6.5,1.1,30.14,NW,319,0.0,0.0,78,0.00,CLR,SKC,0.00,WeatherDisplay:10.37,2013-03-02 14:10:00,
2013-03-02 08:15:00,6.7,1.3,30.14,NW,319,0.0,0.0,78,0.00,CLR,SKC,0.00,WeatherDisplay:10.37,2013-03-02 14:15:00,
2013-03-02 08:20:00,6.9,1.5,30.14,NW,319,0.0,0.0,78,0.00,CLR,SKC,0.00,WeatherDisplay:10.37,2013-03-02 14:20:00,
2013-03-02 08:25:00,7.4,2.0,30.14,NW,319,0.0,0.0,78,0.00,CLR,SKC,0.00,WeatherDisplay:10.37,2013-03-02 14:25:00,
2013-03-02 08:30:00,7.7,2.3,30.14,NW,319,0.0,0.0,78,0.00,CLR,SKC,0.00,WeatherDisplay:10.37,2013-03-02 14:30:00,
2013-03-02 08:35:00,7.8,2.4,30.14,NW,319,0.0,0.0,78,0.00,CLR,SKC,0.00,WeatherDisplay:10.37,2013-03-02 14:35:00,
2013-03-02 08:40:00,7.9,2.5,30.14,NW,319,0.6,2.3,78,0.00,CLR,SKC,0.00,WeatherDisplay:10.37,2013-03-02 14:40:00,
2013-03-02 08:45:00,8.1,2.7,30.14,NW,319,0.0,1.1,78,0.00,CLR,SKC,0.00,WeatherDisplay:10.37,2013-03-02 14:45:00,
2013-03-02 08:50:00,8.6,3.1,30.14,NW,319,0.0,1.1,78,0.00,CLR,SKC,0.00,WeatherDisplay:10.37,2013-03-02 14:50:00,
2013-03-02 08:55:00,9.2,3.7,30.14,NW,319,0.0,0.0,78,0.00,CLR,SKC,0.00,WeatherDisplay:10.37,2013-03-02 14:55:00,
2013-03-02 09:00:00,9.8,4.3,30.14,NW,319,0.0,0.0,78,0.00,CLR,SKC,0.00,WeatherDisplay:10.37,2013-03-02 15:00:00,
2013-03-02 09:05:00,10.8,5.3,30.14,NW,319,0.4,2.3,78,0.00,CLR,SKC,0.00,WeatherDisplay:10.37,2013-03-02 15:05:00,
2013-03-02 09:10:00,11.9,6.6,30.14,NW,319,0.0,0.0,79,0.00,CLR,SKC,0.00,WeatherDisplay:10.37,2013-03-02 15:10:00,
2013-03-02 09:15:00,13.3,8.3,30.13,NW,319,0.1,1.1,80,0.00,CLR,SKC,0.00,WeatherDisplay:10.37,2013-03-02 15:15:00,
2013-03-02 09:20:00,14.7,9.6,30.13,NW,319,0.0,0.0,80,0.00,CLR,SKC,0.00,WeatherDisplay:10.37,2013-03-02 15:20:00,
2013-03-02 09:25:00,16.3,10.9,30.13,NW,319,0.0,0.0,79,0.00,CLR,SKC,0.00,WeatherDisplay:10.37,2013-03-02 15:25:00,
2013-03-02 09:30:00,17.7,12.0,30.13,NW,319,0.0,0.0,78,0.00,CLR,SKC,0.00,WeatherDisplay:10.37,2013-03-02 15:30:00,
2013-03-02 09:35:00,18.8,12.8,30.13,NW,319,0.2,1.1,77,0.00,CLR,SKC,0.00,WeatherDisplay:10.37,2013-03-02 15:35:00,
2013-03-02 09:40:00,19.7,14.0,30.13,NW,319,0.4,1.1,78,0.00,CLR,SKC,0.00,WeatherDisplay:10.37,2013-03-02 15:40:00,
2013-03-02 09:45:00,20.3,14.5,30.13,NW,320,0.3,2.3,78,0.00,CLR,SKC,0.00,WeatherDisplay:10.37,2013-03-02 15:45:00,
2013-03-02 09:50:00,20.2,14.4,30.13,NW,320,0.1,1.1,78,0.00,CLR,SKC,0.00,WeatherDisplay:10.37,2013-03-02 15:50:00,
2013-03-02 09:55:00,20.3,14.5,30.13,NNW,330,0.2,2.3,78,0.00,CLR,SKC,0.00,WeatherDisplay:10.37,2013-03-02 15:55:00,
2013-03-02 10:00:00,19.9,13.9,30.12,NNW,339,1.4,3.5,77,0.00,CLR,SKC,0.00,WeatherDisplay:10.37,2013-03-02 16:00:00,
2013-03-02 10:05:00,18.9,12.9,30.12,North,350,0.7,3.5,77,0.00,CLR,SKC,0.00,WeatherDisplay:10.37,2013-03-02 16:05:00,
2013-03-02 10:10:00,19.0,13.3,30.12,North,350,0.3,2.0,78,0.00,CLR,SKC,0.00,WeatherDisplay:10.37,2013-03-02 16:10:00,
2013-03-02 10:15:00,19.7,14.0,30.12,North,355,0.1,2.3,78,0.00,CLR,SKC,0.00,WeatherDisplay:10.37,2013-03-02 16:15:00,
2013-03-02 10:20:00,20.4,14.3,30.12,North,355,1.5,3.5,77,0.00,CLR,SKC,0.00,WeatherDisplay:10.37,2013-03-02 16:20:00,
2013-03-02 10:25:00,21.4,15.3,30.11,NNE,14,0.0,2.3,77,0.00,CLR,SKC,0.00,WeatherDisplay:10.37,2013-03-02 16:25:00,
2013-03-02 10:30:00,21.9,15.2,30.12,NNE,15,0.1,1.1,75,0.00,CLR,SKC,0.00,WeatherDisplay:10.37,2013-03-02 16:30:00,
2013-03-02 10:35:00,21.6,14.6,30.12,NNE,15,0.0,2.3,74,0.00,CLR,SKC,0.00,WeatherDisplay:10.37,2013-03-02 16:35:00,
2013-03-02 10:40:00,22.0,15.6,30.12,NNE,15,0.1,1.0,76,0.00,CLR,SKC,0.00,WeatherDisplay:10.37,2013-03-02 16:40:00,
2013-03-02 10:45:00,22.2,15.5,30.12,NNE,15,0.1,1.1,75,0.00,CLR,SKC,0.00,WeatherDisplay:10.37,2013-03-02 16:45:00,
2013-03-02 10:50:00,22.8,16.1,30.12,NNE,15,1.1,2.3,75,0.00,CLR,SKC,0.00,WeatherDisplay:10.37,2013-03-02 16:50:00,
2013-03-02 10:55:00,22.9,15.8,30.12,NNE,15,0.0,1.1,74,0.00,CLR,SKC,0.00,WeatherDisplay:10.37,2013-03-02 16:55:00,
2013-03-02 11:00:00,23.2,16.1,30.12,NNE,15,0.0,1.1,74,0.00,CLR,SKC,0.00,WeatherDisplay:10.37,2013-03-02 17:00:00,
2013-03-02 11:05:00,23.9,16.8,30.12,NNE,15,0.0,1.1,74,0.00,CLR,SKC,0.00,WeatherDisplay:10.37,2013-03-02 17:05:00,
2013-03-02 11:10:00,24.3,16.6,30.12,NNE,15,0.0,1.1,72,0.00,CLR,SKC,0.00,WeatherDisplay:10.37,2013-03-02 17:10:00,
2013-03-02 11:15:00,24.5,16.8,30.12,NNE,15,0.0,1.1,72,0.00,CLR,SKC,0.00,WeatherDisplay:10.37,2013-03-02 17:15:00,
2013-03-02 11:20:00,24.3,16.6,30.12,NNE,15,0.2,2.0,72,0.00,CLR,SKC,0.00,WeatherDisplay:10.37,2013-03-02 17:20:00,
2013-03-02 11:25:00,24.1,16.7,30.12,NNE,15,0.0,1.1,73,0.00,CLR,SKC,0.00,WeatherDisplay:10.37,2013-03-02 17:25:00,
2013-03-02 11:30:00,24.4,17.3,30.11,NNE,15,0.4,2.3,74,0.00,CLR,SKC,0.00,WeatherDisplay:10.37,2013-03-02 17:30:00,
2013-03-02 11:35:00,25.4,17.9,30.11,NNE,15,1.0,2.3,73,0.00,CLR,SKC,0.00,WeatherDisplay:10.37,2013-03-02 17:35:00,
2013-03-02 11:40:00,24.8,17.4,30.11,ENE,57,1.5,3.5,73,0.00,CLR,SKC,0.00,WeatherDisplay:10.37,2013-03-02 17:40:00,
2013-03-02 11:45:00,24.1,17.0,30.11,ENE,57,0.4,2.3,74,0.00,CLR,SKC,0.00,WeatherDisplay:10.37,2013-03-02 17:45:00,
2013-03-02 11:50:00,24.4,17.3,30.11,ENE,57,0.2,2.3,74,0.00,CLR,SKC,0.00,WeatherDisplay:10.37,2013-03-02 17:50:00,
2013-03-02 11:55:00,24.3,17.2,30.11,East,83,1.5,4.6,74,0.00,CLR,SKC,0.00,WeatherDisplay:10.37,2013-03-02 17:55:00,
2013-03-02 12:00:00,24.2,17.1,30.11,East,83,0.0,1.1,74,0.00,CLR,SKC,0.00,WeatherDisplay:10.37,2013-03-02 18:00:00,
2013-03-02 12:05:00,24.8,18.0,30.11,East,83,0.6,2.3,75,0.00,CLR,SKC,0.00,WeatherDisplay:10.37,2013-03-02 18:05:00,
2013-03-02 12:10:00,24.9,17.5,30.10,East,86,1.6,3.5,73,0.00,CLR,SKC,0.00,WeatherDisplay:10.37,2013-03-02 18:10:00,
2013-03-02 12:15:00,24.5,17.1,30.10,East,86,1.0,2.3,73,0.00,CLR,SKC,0.00,WeatherDisplay:10.37,2013-03-02 18:15:00,
2013-03-02 12:20:00,24.4,17.3,30.10,East,86,0.0,2.3,74,0.00,CLR,SKC,0.00,WeatherDisplay:10.37,2013-03-02 18:20:00,
2013-03-02 12:25:00,24.5,17.7,30.10,East,88,0.2,2.3,75,0.00,CLR,SKC,0.00,WeatherDisplay:10.37,2013-03-02 18:25:00,
2013-03-02 12:30:00,25.1,18.3,30.10,East,88,0.0,2.3,75,0.00,CLR,SKC,0.00,WeatherDisplay:10.37,2013-03-02 18:30:00,
2013-03-02 12:35:00,25.2,18.1,30.10,East,88,0.4,2.3,74,0.00,CLR,SKC,0.00,WeatherDisplay:10.37,2013-03-02 18:35:00,
2013-03-02 12:40:00,25.4,18.3,30.09,East,88,0.0,0.0,74,0.00,CLR,SKC,0.00,WeatherDisplay:10.37,2013-03-02 18:40:00,
2013-03-02 12:45:00,25.5,18.0,30.09,East,88,0.0,0.0,73,0.00,CLR,SKC,0.00,WeatherDisplay:10.37,2013-03-02 18:45:00,
2013-03-02 12:50:00,25.7,18.2,30.09,East,88,0.0,0.0,73,0.00,CLR,SKC,0.00,WeatherDisplay:10.37,2013-03-02 18:50:00,
2013-03-02 12:55:00,26.1,18.6,30.09,East,88,0.0,0.0,73,0.00,CLR,SKC,0.00,WeatherDisplay:10.37,2013-03-02 18:55:00,
2013-03-02 13:00:00,26.7,19.2,30.08,East,88,0.3,2.3,73,0.00,CLR,SKC,0.00,WeatherDisplay:10.37,2013-03-02 19:00:00,
2013-03-02 13:06:00,27.4,19.6,30.08,East,88,1.0,2.0,72,0.00,CLR,SKC,0.00,WeatherDisplay:10.37,2013-03-02 19:06:00,
2013-03-02 13:11:00,27.0,19.2,30.08,East,94,1.9,3.5,72,0.00,CLR,SKC,0.00,WeatherDisplay:10.37,2013-03-02 19:11:00,
2013-03-02 13:16:00,26.7,19.2,30.08,East,92,0.2,3.5,73,0.00,CLR,SKC,0.00,WeatherDisplay:10.37,2013-03-02 19:16:00,
2013-03-02 13:21:00,27.2,19.4,30.08,East,92,0.6,2.3,72,0.00,CLR,SKC,0.00,WeatherDisplay:10.37,2013-03-02 19:21:00,
2013-03-02 13:27:00,27.7,19.5,30.08,East,88,0.0,4.6,71,0.00,CLR,SKC,0.00,WeatherDisplay:10.37,2013-03-02 19:27:00,
2013-03-02 13:32:00,27.9,19.4,30.07,East,88,1.1,3.5,70,0.00,CLR,SKC,0.00,WeatherDisplay:10.37,2013-03-02 19:32:00,
2013-03-02 13:37:00,28.4,19.9,30.07,East,88,1.1,2.3,70,0.00,CLR,SKC,0.00,WeatherDisplay:10.37,2013-03-02 19:37:00,
2013-03-02 13:42:00,28.8,20.2,30.07,East,88,0.9,3.0,70,0.00,CLR,SKC,0.00,WeatherDisplay:10.37,2013-03-02 19:42:00,
2013-03-02 13:47:00,29.2,19.9,30.07,East,88,0.0,1.1,68,0.00,CLR,SKC,0.00,WeatherDisplay:10.37,2013-03-02 19:47:00,
2013-03-02 13:52:00,29.6,20.0,30.07,East,88,0.4,2.3,67,0.00,CLR,SKC,0.00,WeatherDisplay:10.37,2013-03-02 19:52:00,
2013-03-02 13:57:00,29.3,19.3,30.07,East,88,0.5,2.3,66,0.00,CLR,SKC,0.00,WeatherDisplay:10.37,2013-03-02 19:57:00,
2013-03-02 14:02:00,28.3,18.7,30.07,East,88,0.0,3.5,67,0.00,CLR,SKC,0.00,WeatherDisplay:10.37,2013-03-02 20:02:00,
2013-03-02 14:07:00,27.3,18.5,30.07,East,88,0.2,1.1,69,0.00,CLR,SKC,0.00,WeatherDisplay:10.37,2013-03-02 20:07:00,
2013-03-02 14:13:00,25.8,17.4,30.07,East,88,0.2,2.3,70,0.00,CLR,SKC,0.00,WeatherDisplay:10.37,2013-03-02 20:13:00,
2013-03-02 14:19:00,25.1,17.7,30.07,East,88,1.0,2.3,73,0.00,CLR,SKC,0.00,WeatherDisplay:10.37,2013-03-02 20:19:00,
2013-03-02 14:24:00,24.7,17.3,30.07,East,88,0.5,3.5,73,0.00,CLR,SKC,0.00,WeatherDisplay:10.37,2013-03-02 20:24:00,
2013-03-02 14:29:00,24.7,17.6,30.07,East,88,1.4,3.5,74,0.00,CLR,SKC,0.00,WeatherDisplay:10.37,2013-03-02 20:29:00,
2013-03-02 14:34:00,24.5,17.4,30.07,East,88,1.9,3.5,74,0.00,CLR,SKC,0.00,WeatherDisplay:10.37,2013-03-02 20:34:00,
2013-03-02 14:39:00,24.5,17.1,30.06,East,88,0.7,3.5,73,0.00,CLR,SKC,0.00,WeatherDisplay:10.37,2013-03-02 20:39:00,
2013-03-02 14:44:00,24.5,17.1,30.06,East,88,1.2,3.5,73,0.00,CLR,SKC,0.00,WeatherDisplay:10.37,2013-03-02 20:44:00,
2013-03-02 14:49:00,24.9,18.1,30.06,East,88,0.5,2.3,75,0.00,CLR,SKC,0.00,WeatherDisplay:10.37,2013-03-02 20:49:00,
2013-03-02 14:54:00,24.7,17.3,30.06,East,86,1.5,3.5,73,0.00,CLR,SKC,0.00,WeatherDisplay:10.37,2013-03-02 20:54:00,
2013-03-02 14:59:00,24.5,17.4,30.06,East,86,0.7,2.3,74,0.00,CLR,SKC,0.00,WeatherDisplay:10.37,2013-03-02 20:59:00,
2013-03-02 15:04:00,24.3,17.2,30.05,East,86,2.0,3.5,74,0.00,CLR,SKC,0.00,WeatherDisplay:10.37,2013-03-02 21:04:00,
2013-03-02 15:09:00,24.2,17.4,30.06,East,86,1.2,3.5,75,0.00,CLR,SKC,0.00,WeatherDisplay:10.37,2013-03-02 21:09:00,
2013-03-02 15:14:00,24.2,17.1,30.06,East,86,1.6,3.5,74,0.00,CLR,SKC,0.00,WeatherDisplay:10.37,2013-03-02 21:14:00,
2013-03-02 15:19:00,24.1,17.3,30.06,East,86,1.9,3.5,75,0.00,CLR,SKC,0.00,WeatherDisplay:10.37,2013-03-02 21:19:00,
2013-03-02 15:24:00,24.0,16.9,30.06,East,86,1.0,3.5,74,0.00,CLR,SKC,0.00,WeatherDisplay:10.37,2013-03-02 21:24:00,
2013-03-02 15:29:00,24.3,17.5,30.06,East,86,2.5,4.6,75,0.00,CLR,SKC,0.00,WeatherDisplay:10.37,2013-03-02 21:29:00,
2013-03-02 15:34:00,24.5,17.4,30.05,East,86,1.6,2.3,74,0.00,CLR,SKC,0.00,WeatherDisplay:10.37,2013-03-02 21:34:00,
2013-03-02 15:39:00,24.4,17.3,30.05,East,86,0.6,4.6,74,0.00,CLR,SKC,0.00,WeatherDisplay:10.37,2013-03-02 21:39:00,
2013-03-02 15:44:00,24.6,17.2,30.05,East,86,0.0,1.0,73,0.00,CLR,SKC,0.00,WeatherDisplay:10.37,2013-03-02 21:44:00,
2013-03-02 15:49:00,24.8,17.4,30.05,East,86,0.1,1.1,73,0.00,CLR,SKC,0.00,WeatherDisplay:10.37,2013-03-02 21:49:00,
2013-03-02 15:54:00,25.1,17.7,30.05,East,86,2.0,3.5,73,0.00,CLR,SKC,0.00,WeatherDisplay:10.37,2013-03-02 21:54:00,
2013-03-02 16:01:00,25.3,17.9,30.05,East,86,0.0,2.3,73,0.00,CLR,SKC,0.00,WeatherDisplay:10.37,2013-03-02 22:01:00,
2013-03-02 16:06:00,25.4,17.9,30.05,East,86,0.8,2.3,73,0.00,CLR,SKC,0.00,WeatherDisplay:10.37,2013-03-02 22:06:00,
2013-03-02 16:11:00,25.4,17.6,30.05,East,86,1.5,3.5,72,0.00,CLR,SKC,0.00,WeatherDisplay:10.37,2013-03-02 22:11:00,
2013-03-02 16:16:00,25.3,17.5,30.05,East,86,1.4,3.5,72,0.00,CLR,SKC,0.00,WeatherDisplay:10.37,2013-03-02 22:16:00,
2013-03-02 16:21:00,25.2,17.8,30.05,East,86,0.2,2.3,73,0.00,CLR,SKC,0.00,WeatherDisplay:10.37,2013-03-02 22:21:00,
2013-03-02 16:26:00,24.8,17.7,30.05,East,86,0.1,1.1,74,0.00,CLR,SKC,0.00,WeatherDisplay:10.37,2013-03-02 22:26:00,
2013-03-02 16:31:00,24.4,17.3,30.05,East,86,0.3,2.3,74,0.00,CLR,SKC,0.00,WeatherDisplay:10.37,2013-03-02 22:31:00,
2013-03-02 16:36:00,24.0,16.9,30.04,East,86,1.4,2.3,74,0.00,CLR,SKC,0.00,WeatherDisplay:10.37,2013-03-02 22:36:00,
2013-03-02 16:41:00,23.6,16.5,30.04,East,86,1.5,2.3,74,0.00,CLR,SKC,0.00,WeatherDisplay:10.37,2013-03-02 22:41:00,
2013-03-02 16:46:00,23.2,16.1,30.04,East,86,1.7,3.5,74,0.00,CLR,SKC,0.00,WeatherDisplay:10.37,2013-03-02 22:46:00,
2013-03-02 16:51:00,22.9,15.8,30.04,East,86,0.4,1.1,74,0.00,CLR,SKC,0.00,WeatherDisplay:10.37,2013-03-02 22:51:00,
2013-03-02 16:56:00,22.3,15.3,30.04,East,86,0.0,1.1,74,0.00,CLR,SKC,0.00,WeatherDisplay:10.37,2013-03-02 22:56:00,
2013-03-02 17:01:00,21.9,15.2,30.04,East,86,0.0,0.0,75,0.00,CLR,SKC,0.00,WeatherDisplay:10.37,2013-03-02 23:01:00,
2013-03-02 17:06:00,21.8,15.1,30.03,East,86,0.0,0.0,75,0.00,CLR,SKC,0.00,WeatherDisplay:10.37,2013-03-02 23:06:00,
2013-03-02 17:11:00,21.8,15.1,30.03,East,86,0.0,0.0,75,0.00,CLR,SKC,0.00,WeatherDisplay:10.37,2013-03-02 23:11:00,
2013-03-02 17:16:00,21.8,15.1,30.03,East,86,0.0,1.1,75,0.00,CLR,SKC,0.00,WeatherDisplay:10.37,2013-03-02 23:16:00,
2013-03-02 17:21:00,21.7,15.0,30.03,East,86,0.0,0.0,75,0.00,CLR,SKC,0.00,WeatherDisplay:10.37,2013-03-02 23:21:00,
2013-03-02 17:26:00,21.5,14.8,30.04,East,86,0.0,0.0,75,0.00,CLR,SKC,0.00,WeatherDisplay:10.37,2013-03-02 23:26:00,
2013-03-02 17:31:00,21.4,14.7,30.04,East,86,0.0,0.0,75,0.00,CLR,SKC,0.00,WeatherDisplay:10.37,2013-03-02 23:31:00,
2013-03-02 17:36:00,21.4,14.7,30.03,East,86,0.0,0.0,75,0.00,CLR,SKC,0.00,WeatherDisplay:10.37,2013-03-02 23:36:00,
2013-03-02 17:41:00,21.4,14.7,30.04,East,86,0.0,0.0,75,0.00,CLR,SKC,0.00,WeatherDisplay:10.37,2013-03-02 23:41:00,
2013-03-02 17:46:00,21.4,14.7,30.04,East,86,0.0,0.0,75,0.00,CLR,SKC,0.00,WeatherDisplay:10.37,2013-03-02 23:46:00,
2013-03-02 17:51:00,21.1,14.4,30.04,East,86,0.0,0.0,75,0.00,CLR,SKC,0.00,WeatherDisplay:10.37,2013-03-02 23:51:00,
2013-03-02 17:56:00,20.8,14.4,30.05,East,86,0.0,0.0,76,0.00,CLR,SKC,0.00,WeatherDisplay:10.37,2013-03-02 23:56:00,
2013-03-02 18:01:00,20.6,14.2,30.04,East,86,0.0,0.0,76,0.00,CLR,SKC,0.00,WeatherDisplay:10.37,2013-03-03 00:01:00,
2013-03-02 18:06:00,20.4,14.0,30.04,East,86,0.0,0.0,76,0.00,CLR,SKC,0.00,WeatherDisplay:10.37,2013-03-03 00:06:00,
2013-03-02 18:12:00,20.1,13.7,30.04,East,86,0.0,0.0,76,0.00,CLR,SKC,0.00,WeatherDisplay:10.37,2013-03-03 00:12:00,
2013-03-02 18:18:00,19.9,13.6,30.03,East,86,0.0,0.0,76,0.00,CLR,SKC,0.00,WeatherDisplay:10.37,2013-03-03 00:18:00,
2013-03-02 18:23:00,19.7,13.4,30.03,East,86,0.0,0.0,76,0.00,CLR,SKC,0.00,WeatherDisplay:10.37,2013-03-03 00:23:00,
2013-03-02 18:28:00,19.4,13.1,30.03,East,86,0.0,0.0,76,0.00,CLR,SKC,0.00,WeatherDisplay:10.37,2013-03-03 00:28:00,
2013-03-02 18:33:00,19.2,12.9,30.03,East,86,0.0,0.0,76,0.00,CLR,SKC,0.00,WeatherDisplay:10.37,2013-03-03 00:33:00,
2013-03-02 18:38:00,19.0,13.0,30.03,East,86,0.0,0.0,77,0.00,CLR,SKC,0.00,WeatherDisplay:10.37,2013-03-03 00:38:00,
2013-03-02 18:43:00,18.9,12.9,30.03,East,86,0.0,0.0,77,0.00,CLR,SKC,0.00,WeatherDisplay:10.37,2013-03-03 00:43:00,
2013-03-02 18:48:00,18.8,12.8,30.03,East,86,0.0,0.0,77,0.00,CLR,SKC,0.00,WeatherDisplay:10.37,2013-03-03 00:48:00,
2013-03-02 18:53:00,18.8,12.5,30.04,East,86,0.0,0.0,76,0.00,CLR,SKC,0.00,WeatherDisplay:10.37,2013-03-03 00:53:00,
2013-03-02 18:58:00,18.8,13.1,30.04,East,86,0.0,0.0,78,0.00,CLR,SKC,0.00,WeatherDisplay:10.37,2013-03-03 00:58:00,
2013-03-02 19:03:00,17.7,11.4,30.04,East,86,0.0,0.0,76,0.00,CLR,SKC,0.00,WeatherDisplay:10.37,2013-03-03 01:03:00,
2013-03-02 19:08:00,15.8,9.6,30.05,East,86,1.9,2.3,76,0.00,CLR,SKC,0.00,WeatherDisplay:10.37,2013-03-03 01:08:00,
2013-03-02 19:13:00,14.3,8.4,30.04,East,86,0.0,0.0,77,0.00,CLR,SKC,0.00,WeatherDisplay:10.37,2013-03-03 01:13:00,
2013-03-02 19:18:00,13.8,8.2,30.03,East,86,0.0,0.0,78,0.00,CLR,SKC,0.00,WeatherDisplay:10.37,2013-03-03 01:18:00,
2013-03-02 19:23:00,13.6,7.7,30.03,East,86,0.0,0.0,77,0.00,SCT,SKC,0.00,WeatherDisplay:10.37,2013-03-03 01:23:00,
2013-03-02 19:28:00,13.8,7.9,30.03,East,86,0.0,0.0,77,0.00,SCT,SKC,0.00,WeatherDisplay:10.37,2013-03-03 01:28:00,
2013-03-02 19:33:00,13.9,8.0,30.03,East,86,0.0,0.0,77,0.00,SCT,SKC,0.00,WeatherDisplay:10.37,2013-03-03 01:33:00,
2013-03-02 19:38:00,13.8,7.9,30.03,East,86,0.0,0.0,77,0.00,SCT,SKC,0.00,WeatherDisplay:10.37,2013-03-03 01:38:00,
2013-03-02 19:43:00,14.0,7.8,30.02,East,86,0.0,0.0,76,0.00,BKN,SKC,0.00,WeatherDisplay:10.37,2013-03-03 01:43:00,
2013-03-02 19:48:00,14.0,8.1,30.03,East,86,0.0,0.0,77,0.00,BKN,SKC,0.00,WeatherDisplay:10.37,2013-03-03 01:48:00,
2013-03-02 19:53:00,14.0,8.1,30.03,East,86,0.0,0.0,77,0.00,BKN,SKC,0.00,WeatherDisplay:10.37,2013-03-03 01:53:00,
2013-03-02 19:58:00,14.2,8.0,30.03,East,86,0.0,0.0,76,0.00,BKN,SKC,0.00,WeatherDisplay:10.37,2013-03-03 01:58:00,
2013-03-02 20:03:00,14.4,8.5,30.03,East,86,0.0,0.0,77,0.00,OVC,SKC,0.00,WeatherDisplay:10.37,2013-03-03 02:03:00,
2013-03-02 20:08:00,14.7,8.8,30.03,East,86,0.0,0.0,77,0.00,OVC,SKC,0.00,WeatherDisplay:10.37,2013-03-03 02:08:00,
2013-03-02 20:13:00,14.8,8.9,30.03,East,86,0.0,0.0,77,0.00,OVC,SKC,0.00,WeatherDisplay:10.37,2013-03-03 02:13:00,
2013-03-02 20:18:00,14.8,8.9,30.03,East,86,0.0,0.0,77,0.00,OVC,SKC,0.00,WeatherDisplay:10.37,2013-03-03 02:18:00,
2013-03-02 20:23:00,14.5,8.3,30.03,East,86,0.1,1.0,76,0.00,OVC,SKC,0.00,WeatherDisplay:10.37,2013-03-03 02:23:00,
2013-03-02 20:28:00,14.7,8.8,30.03,East,86,0.0,0.0,77,0.00,OVC,SKC,0.00,WeatherDisplay:10.37,2013-03-03 02:28:00,
2013-03-02 20:33:00,14.4,8.5,30.03,East,86,0.0,0.0,77,0.00,OVC,SKC,0.00,WeatherDisplay:10.37,2013-03-03 02:33:00,
2013-03-02 20:38:00,14.3,8.1,30.03,East,86,0.0,0.0,76,0.00,OVC,SKC,0.00,WeatherDisplay:10.37,2013-03-03 02:38:00,
2013-03-02 20:43:00,14.6,8.7,30.03,East,86,0.0,0.0,77,0.00,OVC,SKC,0.00,WeatherDisplay:10.37,2013-03-03 02:43:00,
2013-03-02 20:48:00,14.4,8.5,30.03,East,86,0.0,0.0,77,0.00,OVC,SKC,0.00,WeatherDisplay:10.37,2013-03-03 02:48:00,
2013-03-02 20:53:00,14.1,8.2,30.03,East,86,0.0,0.0,77,0.00,OVC,SKC,0.00,WeatherDisplay:10.37,2013-03-03 02:53:00,
2013-03-02 20:58:00,14.1,8.2,30.03,East,86,0.0,0.0,77,0.00,OVC,SKC,0.00,WeatherDisplay:10.37,2013-03-03 02:58:00,
2013-03-02 21:03:00,14.3,8.4,30.03,East,86,0.0,0.0,77,0.00,OVC,SKC,0.00,WeatherDisplay:10.37,2013-03-03 03:03:00,
2013-03-02 21:08:00,14.4,8.5,30.03,East,86,0.0,0.0,77,0.00,OVC,SKC,0.00,WeatherDisplay:10.37,2013-03-03 03:08:00,
2013-03-02 21:13:00,14.7,8.8,30.03,East,86,0.0,0.0,77,0.00,OVC,SKC,0.00,WeatherDisplay:10.37,2013-03-03 03:13:00,
2013-03-02 21:18:00,14.9,9.0,30.03,East,86,0.0,0.0,77,0.00,OVC,SKC,0.00,WeatherDisplay:10.37,2013-03-03 03:18:00,
2013-03-02 21:23:00,15.2,9.3,30.03,East,86,0.0,0.0,77,0.00,OVC,SKC,0.00,WeatherDisplay:10.37,2013-03-03 03:23:00,
2013-03-02 21:28:00,15.4,9.5,30.03,East,86,0.0,0.0,77,0.00,OVC,SKC,0.00,WeatherDisplay:10.37,2013-03-03 03:28:00,
2013-03-02 21:33:00,15.5,9.6,30.03,East,86,0.0,0.0,77,0.00,OVC,SKC,0.00,WeatherDisplay:10.37,2013-03-03 03:33:00,
2013-03-02 21:38:00,15.8,9.9,30.03,East,86,0.0,0.0,77,0.00,OVC,SKC,0.00,WeatherDisplay:10.37,2013-03-03 03:38:00,
2013-03-02 21:43:00,16.1,10.2,30.03,East,86,0.0,0.0,77,0.00,OVC,SKC,0.00,WeatherDisplay:10.37,2013-03-03 03:43:00,
2013-03-02 21:48:00,16.2,10.3,30.02,East,86,0.0,0.0,77,0.00,OVC,SKC,0.00,WeatherDisplay:10.37,2013-03-03 03:48:00,
2013-03-02 21:53:00,16.3,10.4,30.02,East,86,0.0,0.0,77,0.00,OVC,SKC,0.00,WeatherDisplay:10.37,2013-03-03 03:53:00,
2013-03-02 21:58:00,16.5,10.5,30.02,East,86,0.0,0.0,77,0.00,OVC,SKC,0.00,WeatherDisplay:10.37,2013-03-03 03:58:00,
2013-03-02 22:03:00,16.8,10.8,30.02,East,86,0.3,2.0,77,0.00,OVC,SKC,0.00,WeatherDisplay:10.37,2013-03-03 04:03:00,
2013-03-02 22:08:00,17.0,11.0,30.01,East,86,0.0,0.0,77,0.00,OVC,SKC,0.00,WeatherDisplay:10.37,2013-03-03 04:08:00,
2013-03-02 22:13:00,17.2,11.2,30.01,East,86,0.0,0.0,77,0.00,OVC,SKC,0.00,WeatherDisplay:10.37,2013-03-03 04:13:00,
2013-03-02 22:18:00,17.4,11.4,30.01,East,86,0.0,0.0,77,0.00,OVC,SKC,0.00,WeatherDisplay:10.37,2013-03-03 04:18:00,
2013-03-02 22:23:00,17.7,11.7,30.01,East,86,1.4,2.3,77,0.00,OVC,SKC,0.00,WeatherDisplay:10.37,2013-03-03 04:23:00,
2013-03-02 22:28:00,18.1,12.1,30.00,East,86,1.8,3.0,77,0.00,OVC,SKC,0.00,WeatherDisplay:10.37,2013-03-03 04:28:00,
2013-03-02 22:33:00,18.5,12.2,30.00,ESE,102,2.7,3.5,76,0.00,OVC,SKC,0.00,WeatherDisplay:10.37,2013-03-03 04:33:00,
2013-03-02 22:38:00,18.7,12.4,30.00,ESE,116,2.5,3.5,76,0.00,OVC,SKC,0.00,WeatherDisplay:10.37,2013-03-03 04:38:00,
2013-03-02 22:43:00,18.9,12.9,30.00,SE,136,3.1,4.0,77,0.00,OVC,SKC,0.00,WeatherDisplay:10.37,2013-03-03 04:43:00,
2013-03-02 22:48:00,19.0,13.0,30.00,SE,136,2.5,3.5,77,0.00,OVC,SKC,0.00,WeatherDisplay:10.37,2013-03-03 04:48:00,
2013-03-02 22:53:00,19.1,13.1,30.00,SE,136,2.4,3.5,77,0.00,OVC,SKC,0.00,WeatherDisplay:10.37,2013-03-03 04:53:00,
2013-03-02 22:58:00,19.0,13.0,30.00,SE,136,2.5,3.5,77,0.00,OVC,SKC,0.00,WeatherDisplay:10.37,2013-03-03 04:58:00,
2013-03-02 23:00:00,18.9,12.9,30.00,SE,136,2.4,3.5,77,0.00,OVC,SKC,0.00,WeatherDisplay:10.37,2013-03-03 05:00:00,
2013-03-02 23:01:00,18.9,12.9,30.00,SE,136,2.2,3.5,77,0.00,OVC,SKC,0.00,WeatherDisplay:10.37,2013-03-03 05:01:00,
2013-03-02 23:06:00,18.6,12.6,30.00,SE,136,2.0,3.0,77,0.00,OVC,SKC,0.00,WeatherDisplay:10.37,2013-03-03 05:06:00,
2013-03-02 23:11:00,18.2,12.2,29.99,SE,136,1.5,3.5,77,0.00,OVC,SKC,0.00,WeatherDisplay:10.37,2013-03-03 05:11:00,
2013-03-02 23:16:00,17.7,11.7,29.99,SE,136,2.0,3.0,77,0.00,OVC,SKC,0.00,WeatherDisplay:10.37,2013-03-03 05:16:00,
2013-03-02 23:18:00,17.5,11.5,29.99,SE,136,3.2,4.0,77,0.00,OVC,SKC,0.00,WeatherDisplay:10.37,2013-03-03 05:18:00,
2013-03-02 23:23:00,16.9,10.9,29.98,SE,136,2.7,3.5,77,0.00,OVC,SKC,0.00,WeatherDisplay:10.37,2013-03-03 05:23:00,
2013-03-02 23:28:00,16.5,10.5,29.99,SE,136,3.3,4.0,77,0.00,OVC,SKC,0.00,WeatherDisplay:10.37,2013-03-03 05:28:00,
2013-03-02 23:33:00,16.1,10.2,29.99,SE,136,3.3,4.0,77,0.00,OVC,SKC,0.00,WeatherDisplay:10.37,2013-03-03 05:33:00,
2013-03-02 23:38:00,15.9,10.0,29.98,SE,136,2.5,3.5,77,0.00,OVC,SKC,0.00,WeatherDisplay:10.37,2013-03-03 05:38:00,
2013-03-02 23:43:00,15.8,9.9,29.99,SE,136,1.1,2.3,77,0.00,OVC,SKC,0.00,WeatherDisplay:10.37,2013-03-03 05:43:00,
2013-03-02 23:48:00,15.9,10.0,29.99,SE,136,0.0,0.0,77,0.00,OVC,SKC,0.00,WeatherDisplay:10.37,2013-03-03 05:48:00,
2013-03-02 23:53:00,16.0,10.1,30.00,SE,136,0.0,0.0,77,0.00,OVC,SKC,0.00,WeatherDisplay:10.37,2013-03-03 05:53:00,
2013-03-02 23:58:00,16.1,10.2,29.99,SE,136,0.0,0.0,77,0.00,OVC,SKC,0.00,WeatherDisplay:10.37,2013-03-03 05:58:00,